,,PA_Meas_PMT16A,,PR_Meas_QMR101_102,,RH_Meas_QMH101,,SR_Meas_QMS101,,TA_Meas_QMH101,,GenWind,,GenWind,
time,status,PA,status,PR,status,RH,status,SR,status,TA,status,DirAvg,status,SpdAvg,
2012-04-23, 00:00:05,VALID,917.025,VALID,0,VALID,88.9043,VALID,0,VALID,21.7477,VALID,147,VALID,1.08477,
2012-04-23, 00:01:05,VALID,917.007,VALID,0,VALID,88.828,VALID,0.107441,VALID,21.7477,VALID,149,VALID,1.54492,
2012-04-23, 00:02:05,VALID,917.031,VALID,0,VALID,88.5917,VALID,0.107441,VALID,21.7282,VALID,140,VALID,1.24297,
2012-04-23, 00:03:05,VALID,917.051,VALID,0,VALID,88.5231,VALID,0,VALID,21.7265,VALID,151,VALID,1.19961,
2012-04-23, 00:04:05,VALID,917.032,VALID,0,VALID,88.6222,VALID,0.107441,VALID,21.7477,VALID,148,VALID,0.753516,
2012-04-23, 00:05:05,VALID,917.05,VALID,0,VALID,88.8738,VALID,0,VALID,21.7265,VALID,152,VALID,0.895312,
2012-04-23, 00:06:05,VALID,917.069,VALID,0,VALID,88.9195,VALID,0.107441,VALID,21.7265,VALID,152,VALID,0.940234,
2012-04-23, 00:07:05,VALID,917.064,VALID,0,VALID,88.6756,VALID,0,VALID,21.7265,VALID,164,VALID,0.794141,
2012-04-23, 00:08:05,VALID,917.067,VALID,0,VALID,88.7061,VALID,0.107441,VALID,21.7477,VALID,147,VALID,1.08945,
2012-04-23, 00:09:05,VALID,917.032,VALID,0,VALID,88.8433,VALID,0.107441,VALID,21.7282,VALID,133,VALID,1.02422,
2012-04-23, 00:10:05,VALID,917.052,VALID,0,VALID,89.0872,VALID,0,VALID,21.7087,VALID,141,VALID,0.862109,
2012-04-23, 00:11:05,VALID,917.063,VALID,0,VALID,89.2931,VALID,0,VALID,21.6891,VALID,148,VALID,0.234375,
2012-04-23, 00:12:05,VALID,916.996,VALID,0,VALID,89.3236,VALID,0,VALID,21.6891,VALID,148,VALID,0.212109,
2012-04-23, 00:13:05,VALID,916.994,VALID,0,VALID,89.3846,VALID,0,VALID,21.7087,VALID,148,VALID,0.117969,
2012-04-23, 00:14:05,VALID,916.97,VALID,0,VALID,89.4684,VALID,0,VALID,21.7087,VALID,148,VALID,0.253516,
2012-04-23, 00:15:05,VALID,917.005,VALID,0,VALID,89.4532,VALID,0,VALID,21.7087,VALID,148,VALID,0,
2012-04-23, 00:16:05,VALID,917.017,VALID,0,VALID,89.4379,VALID,0,VALID,21.7087,VALID,148,VALID,0,
2012-04-23, 00:17:05,VALID,917.019,VALID,0,VALID,89.6742,VALID,0,VALID,21.6908,VALID,148,VALID,0.408594,
2012-04-23, 00:18:05,VALID,917.032,VALID,0,VALID,90.0707,VALID,0,VALID,21.6111,VALID,148,VALID,0.266016,
2012-04-23, 00:19:05,VALID,917.058,VALID,0,VALID,90.5509,VALID,0,VALID,21.5542,VALID,148,VALID,0.308984,
2012-04-23, 00:20:05,VALID,917.039,VALID,0,VALID,90.9778,VALID,0,VALID,21.4355,VALID,148,VALID,0.613281,
2012-04-23, 00:21:05,VALID,917.063,VALID,0,VALID,91.6106,VALID,0,VALID,21.3591,VALID,148,VALID,0.401953,
2012-04-23, 00:22:05,VALID,917.038,VALID,0,VALID,92.0375,VALID,0,VALID,21.2795,VALID,148,VALID,0.427734,
2012-04-23, 00:23:05,VALID,917.056,VALID,0,VALID,92.3043,VALID,0,VALID,21.2616,VALID,148,VALID,0.549609,
2012-04-23, 00:24:05,VALID,917.074,VALID,0,VALID,92.5711,VALID,0,VALID,21.2015,VALID,148,VALID,0.244141,
2012-04-23, 00:25:05,VALID,917.077,VALID,0,VALID,92.7007,VALID,0,VALID,21.1836,VALID,148,VALID,0,
2012-04-23, 00:26:05,VALID,917.084,VALID,0,VALID,92.6626,VALID,0,VALID,21.164,VALID,148,VALID,0.0898438,
2012-04-23, 00:27:05,VALID,917.089,VALID,0,VALID,92.655,VALID,0,VALID,21.1445,VALID,148,VALID,0.736328,
2012-04-23, 00:28:05,VALID,917.126,VALID,0,VALID,92.2891,VALID,0,VALID,21.0454,VALID,48,VALID,1.16992,
2012-04-23, 00:29:05,VALID,917.115,VALID,0,VALID,92.3653,VALID,0,VALID,20.9885,VALID,48,VALID,0.987109,
2012-04-23, 00:30:05,VALID,917.147,VALID,0,VALID,92.655,VALID,0,VALID,20.9105,VALID,48,VALID,0.946875,
2012-04-23, 00:31:05,VALID,917.146,VALID,0,VALID,93.0514,VALID,0,VALID,20.8519,VALID,48,VALID,0.940234,
2012-04-23, 00:32:05,VALID,917.179,VALID,0,VALID,93.3106,VALID,0,VALID,20.7934,VALID,48,VALID,0.953906,
2012-04-23, 00:33:05,VALID,917.176,VALID,0,VALID,93.646,VALID,0,VALID,20.7333,VALID,48,VALID,0.947266,
2012-04-23, 00:34:05,VALID,917.157,VALID,0,VALID,93.9129,VALID,0,VALID,20.7349,VALID,48,VALID,0.892187,
2012-04-23, 00:35:05,VALID,917.153,VALID,0,VALID,93.9891,VALID,0,VALID,20.7349,VALID,48,VALID,1.00039,
2012-04-23, 00:36:05,VALID,917.174,VALID,0,VALID,94.0882,VALID,0,VALID,20.7138,VALID,48,VALID,0.813672,
2012-04-23, 00:37:05,VALID,917.168,VALID,0,VALID,94.1797,VALID,0,VALID,20.6943,VALID,48,VALID,0.641016,
2012-04-23, 00:38:05,VALID,917.162,VALID,0,VALID,94.2178,VALID,0,VALID,20.7154,VALID,48,VALID,0.619531,
2012-04-23, 00:39:05,VALID,917.199,VALID,0,VALID,94.1644,VALID,0,VALID,20.7544,VALID,48,VALID,0.677734,
2012-04-23, 00:40:05,VALID,917.199,VALID,0,VALID,94.1721,VALID,0,VALID,20.7349,VALID,48,VALID,0.826953,
2012-04-23, 00:41:05,VALID,917.214,VALID,0,VALID,94.1416,VALID,0,VALID,20.7544,VALID,48,VALID,0.667969,
2012-04-23, 00:42:05,VALID,917.21,VALID,0,VALID,94.1949,VALID,0,VALID,20.7544,VALID,48,VALID,0.416406,
2012-04-23, 00:43:05,VALID,917.217,VALID,0,VALID,94.1949,VALID,0,VALID,20.7739,VALID,48,VALID,0.230078,
2012-04-23, 00:44:05,VALID,917.22,VALID,0,VALID,94.1034,VALID,0,VALID,20.7934,VALID,48,VALID,0.491797,
2012-04-23, 00:45:05,VALID,917.207,VALID,0,VALID,94.0577,VALID,0,VALID,20.7739,VALID,48,VALID,0.110547,
2012-04-23, 00:46:05,VALID,917.197,VALID,0,VALID,94.0577,VALID,0,VALID,20.7918,VALID,48,VALID,0.210547,
2012-04-23, 00:47:05,VALID,917.15,VALID,0,VALID,94.073,VALID,0,VALID,20.8324,VALID,48,VALID,0,
2012-04-23, 00:48:05,VALID,917.177,VALID,0,VALID,94.1034,VALID,0,VALID,20.8519,VALID,48,VALID,0,
2012-04-23, 00:49:05,VALID,917.18,VALID,0,VALID,94.0272,VALID,0,VALID,20.891,VALID,48,VALID,0,
2012-04-23, 00:50:05,VALID,917.151,VALID,0,VALID,93.951,VALID,0,VALID,20.93,VALID,48,VALID,0,
2012-04-23, 00:51:05,VALID,917.14,VALID,0,VALID,93.8976,VALID,0,VALID,20.93,VALID,48,VALID,0,
2012-04-23, 00:52:05,VALID,917.138,VALID,0,VALID,93.8519,VALID,0,VALID,20.9284,VALID,48,VALID,0,
2012-04-23, 00:53:05,VALID,917.119,VALID,0,VALID,93.707,VALID,0,VALID,20.969,VALID,48,VALID,0,
2012-04-23, 00:54:05,VALID,917.122,VALID,0,VALID,93.5469,VALID,0,VALID,21.008,VALID,48,VALID,0,
2012-04-23, 00:55:05,VALID,917.116,VALID,0,VALID,93.3868,VALID,0,VALID,20.9885,VALID,48,VALID,0.499219,
2012-04-23, 00:56:05,VALID,917.111,VALID,0,VALID,93.1886,VALID,0,VALID,20.969,VALID,48,VALID,0.388672,
2012-04-23, 00:57:05,VALID,917.106,VALID,0,VALID,93.3106,VALID,0,VALID,20.93,VALID,48,VALID,0.519141,
2012-04-23, 00:58:05,VALID,917.12,VALID,0,VALID,93.3945,VALID,0,VALID,20.93,VALID,48,VALID,0.593359,
2012-04-23, 00:59:05,VALID,917.082,VALID,0,VALID,93.4097,VALID,0,VALID,20.9105,VALID,48,VALID,0.597266,
2012-04-23, 01:00:05,VALID,917.069,VALID,0,VALID,93.5851,VALID,0,VALID,20.8699,VALID,48,VALID,0.649609,
2012-04-23, 01:01:05,VALID,917.057,VALID,0,VALID,93.6232,VALID,0,VALID,20.891,VALID,48,VALID,0.542188,
2012-04-23, 01:02:05,VALID,917.051,VALID,0,VALID,93.7756,VALID,0,VALID,20.8309,VALID,78,VALID,0.555859,
2012-04-23, 01:03:05,VALID,917.028,VALID,0,VALID,93.829,VALID,0,VALID,20.8324,VALID,78,VALID,0.673437,
2012-04-23, 01:04:05,VALID,917.056,VALID,0,VALID,93.9891,VALID,0,VALID,20.8324,VALID,78,VALID,0.646094,
2012-04-23, 01:05:05,VALID,917.031,VALID,0,VALID,94.0272,VALID,0,VALID,20.8519,VALID,78,VALID,0.739453,
2012-04-23, 01:06:05,VALID,917.037,VALID,0,VALID,94.0958,VALID,0,VALID,20.8519,VALID,78,VALID,0.5875,
2012-04-23, 01:07:05,VALID,917.001,VALID,0,VALID,94.0958,VALID,0,VALID,20.8714,VALID,119,VALID,0.809766,
2012-04-23, 01:08:05,VALID,916.974,VALID,0,VALID,94.1339,VALID,0,VALID,20.8894,VALID,119,VALID,1.01172,
2012-04-23, 01:09:05,VALID,916.998,VALID,0,VALID,94.0425,VALID,0,VALID,20.93,VALID,119,VALID,0.508203,
2012-04-23, 01:10:05,VALID,916.993,VALID,0,VALID,93.9815,VALID,0,VALID,20.9284,VALID,119,VALID,0.61875,
2012-04-23, 01:11:05,VALID,917.002,VALID,0,VALID,93.9205,VALID,0.107441,VALID,20.9284,VALID,119,VALID,0.844141,
2012-04-23, 01:12:05,VALID,916.966,VALID,0,VALID,93.8595,VALID,0,VALID,20.8894,VALID,119,VALID,0.663672,
2012-04-23, 01:13:05,VALID,916.962,VALID,0,VALID,93.9434,VALID,0.107441,VALID,20.8504,VALID,119,VALID,0.745313,
2012-04-23, 01:14:05,VALID,916.947,VALID,0,VALID,94.0958,VALID,0.107441,VALID,20.8309,VALID,118,VALID,0.603125,
2012-04-23, 01:15:05,VALID,916.959,VALID,0,VALID,94.0958,VALID,0.107441,VALID,20.7723,VALID,118,VALID,0.69375,
2012-04-23, 01:16:05,VALID,916.971,VALID,0,VALID,94.1873,VALID,0.107441,VALID,20.7544,VALID,118,VALID,0.636719,
2012-04-23, 01:17:05,VALID,916.971,VALID,0,VALID,94.4084,VALID,0,VALID,20.7154,VALID,118,VALID,0.801172,
2012-04-23, 01:18:05,VALID,916.958,VALID,0,VALID,94.6066,VALID,0,VALID,20.6943,VALID,118,VALID,0.801172,
2012-04-23, 01:19:05,VALID,916.957,VALID,0,VALID,94.7438,VALID,0,VALID,20.6748,VALID,118,VALID,0.862891,
2012-04-23, 01:20:05,VALID,916.913,VALID,0,VALID,94.8963,VALID,0.107441,VALID,20.6553,VALID,118,VALID,0.866406,
2012-04-23, 01:21:05,VALID,916.957,VALID,0,VALID,94.9954,VALID,0.107441,VALID,20.6553,VALID,118,VALID,0.926953,
2012-04-23, 01:22:05,VALID,916.93,VALID,0,VALID,94.9954,VALID,0.107441,VALID,20.6358,VALID,118,VALID,0.846094,
2012-04-23, 01:23:05,VALID,916.931,VALID,0,VALID,95.064,VALID,0.107441,VALID,20.5952,VALID,118,VALID,0.730469,
2012-04-23, 01:24:05,VALID,916.924,VALID,0,VALID,95.1555,VALID,0,VALID,20.5968,VALID,118,VALID,0.937891,
2012-04-23, 01:25:05,VALID,916.89,VALID,0,VALID,95.2165,VALID,0,VALID,20.6194,VALID,118,VALID,1.03359,
2012-04-23, 01:26:05,VALID,916.874,VALID,0,VALID,95.2851,VALID,0,VALID,20.5789,VALID,118,VALID,0.889063,
2012-04-23, 01:27:05,VALID,916.856,VALID,0,VALID,95.3232,VALID,0,VALID,20.5594,VALID,118,VALID,0.916406,
2012-04-23, 01:28:05,VALID,916.834,VALID,0,VALID,95.3537,VALID,0,VALID,20.5594,VALID,118,VALID,0.838672,
2012-04-23, 01:29:05,VALID,916.804,VALID,0,VALID,95.3842,VALID,0,VALID,20.5399,VALID,118,VALID,0.728906,
2012-04-23, 01:30:05,VALID,916.768,VALID,0,VALID,95.4147,VALID,0,VALID,20.5399,VALID,118,VALID,0.7,
2012-04-23, 01:31:05,VALID,916.721,VALID,0,VALID,95.468,VALID,0,VALID,20.5204,VALID,118,VALID,0.663672,
2012-04-23, 01:32:05,VALID,916.747,VALID,0,VALID,95.5443,VALID,0,VALID,20.5399,VALID,118,VALID,0.649609,
2012-04-23, 01:33:05,VALID,916.732,VALID,0,VALID,95.6205,VALID,0,VALID,20.5594,VALID,118,VALID,0.361328,
2012-04-23, 01:34:05,VALID,916.717,VALID,0,VALID,95.5138,VALID,0,VALID,20.5609,VALID,117,VALID,0.944531,
2012-04-23, 01:35:04,VALID,916.697,VALID,0,VALID,95.4757,VALID,0,VALID,20.5399,VALID,117,VALID,0.7375,
2012-04-23, 01:36:04,VALID,916.688,VALID,0,VALID,95.5138,VALID,0,VALID,20.5009,VALID,118,VALID,0.908203,
2012-04-23, 01:37:04,VALID,916.672,VALID,0,VALID,95.5367,VALID,0,VALID,20.5204,VALID,117,VALID,0.664063,
2012-04-23, 01:38:04,VALID,916.64,VALID,0,VALID,95.6129,VALID,0,VALID,20.5399,VALID,117,VALID,1.06406,
2012-04-23, 01:39:04,VALID,916.65,VALID,0,VALID,95.59,VALID,0,VALID,20.5399,VALID,118,VALID,0.733594,
2012-04-23, 01:40:04,VALID,916.604,VALID,0,VALID,95.5519,VALID,0,VALID,20.5383,VALID,117,VALID,0.698438,
2012-04-23, 01:41:04,VALID,916.617,VALID,0,VALID,95.5595,VALID,0,VALID,20.5578,VALID,116,VALID,0.742969,
2012-04-23, 01:42:04,VALID,916.596,VALID,0,VALID,95.4757,VALID,0.107441,VALID,20.5367,VALID,126,VALID,0.896484,
2012-04-23, 01:43:04,VALID,916.557,VALID,0,VALID,95.5138,VALID,0.107441,VALID,20.5773,VALID,134,VALID,1.00195,
2012-04-23, 01:44:04,VALID,916.543,VALID,0,VALID,95.529,VALID,0.107441,VALID,20.5952,VALID,137,VALID,1.1457,
2012-04-23, 01:45:04,VALID,916.536,VALID,0,VALID,95.4909,VALID,0.107441,VALID,20.6569,VALID,145,VALID,1.01445,
2012-04-23, 01:46:04,VALID,916.495,VALID,0,VALID,95.4071,VALID,0,VALID,20.6764,VALID,142,VALID,0.825,
2012-04-23, 01:47:04,VALID,916.493,VALID,0,VALID,95.4147,VALID,0,VALID,20.6748,VALID,158,VALID,1.46523,
2012-04-23, 01:48:04,VALID,916.485,VALID,0,VALID,95.3766,VALID,0.107441,VALID,20.7154,VALID,146,VALID,0.735547,
2012-04-23, 01:49:04,VALID,916.461,VALID,0,VALID,95.3079,VALID,0.107441,VALID,20.6943,VALID,143,VALID,1.0668,
2012-04-23, 01:50:04,VALID,916.458,VALID,0,VALID,95.2698,VALID,0,VALID,20.6959,VALID,135,VALID,1.6332,
2012-04-23, 01:51:04,VALID,916.483,VALID,0,VALID,95.247,VALID,0,VALID,20.7349,VALID,132,VALID,1.69219,
2012-04-23, 01:52:04,VALID,916.429,VALID,0,VALID,95.2241,VALID,0,VALID,20.7138,VALID,144,VALID,2.16172,
2012-04-23, 01:53:04,VALID,916.399,VALID,0,VALID,95.2012,VALID,0.107441,VALID,20.7138,VALID,165,VALID,1.7125,
2012-04-23, 01:54:04,VALID,916.401,VALID,0,VALID,95.1326,VALID,0.107441,VALID,20.7333,VALID,109,VALID,1.41953,
2012-04-23, 01:55:04,VALID,916.394,VALID,0,VALID,95.0411,VALID,0,VALID,20.7544,VALID,144,VALID,1.82148,
2012-04-23, 01:56:04,VALID,916.382,VALID,0,VALID,95.003,VALID,0,VALID,20.7739,VALID,155,VALID,1.22812,
2012-04-23, 01:57:04,VALID,916.364,VALID,0,VALID,94.9039,VALID,0,VALID,20.8145,VALID,158,VALID,0.846094,
2012-04-23, 01:58:04,VALID,916.331,VALID,0,VALID,94.7819,VALID,0,VALID,20.7934,VALID,153,VALID,0.869531,
2012-04-23, 01:59:04,VALID,916.297,VALID,0,VALID,94.7438,VALID,0,VALID,20.7934,VALID,150,VALID,1.36055,
2012-04-23, 02:00:04,VALID,916.285,VALID,0,VALID,94.6676,VALID,0,VALID,20.8129,VALID,119,VALID,1.52422,
2012-04-23, 02:01:04,VALID,916.274,VALID,0,VALID,94.6295,VALID,0,VALID,20.8129,VALID,142,VALID,1.51172,
2012-04-23, 02:02:04,VALID,916.26,VALID,0,VALID,94.6295,VALID,0,VALID,20.8129,VALID,144,VALID,1.18828,
2012-04-23, 02:03:04,VALID,916.218,VALID,0,VALID,94.538,VALID,0,VALID,20.834,VALID,114,VALID,1.26406,
2012-04-23, 02:04:04,VALID,916.199,VALID,0,VALID,94.5227,VALID,0,VALID,20.8324,VALID,131,VALID,1.87031,
2012-04-23, 02:05:04,VALID,916.253,VALID,0,VALID,94.4236,VALID,0,VALID,20.8519,VALID,135,VALID,1.96406,
2012-04-23, 02:06:04,VALID,916.212,VALID,0,VALID,94.2712,VALID,0,VALID,20.8714,VALID,124,VALID,1.86016,
2012-04-23, 02:07:04,VALID,916.22,VALID,0,VALID,94.0806,VALID,0,VALID,20.9105,VALID,134,VALID,2.12539,
2012-04-23, 02:08:04,VALID,916.212,VALID,0,VALID,93.829,VALID,0,VALID,20.9511,VALID,129,VALID,1.37305,
2012-04-23, 02:09:04,VALID,916.223,VALID,0,VALID,93.5241,VALID,0,VALID,20.969,VALID,130,VALID,1.88437,
2012-04-23, 02:10:04,VALID,916.205,VALID,0,VALID,93.2039,VALID,0,VALID,21.0064,VALID,147,VALID,1.77656,
2012-04-23, 02:11:04,VALID,916.192,VALID,0,VALID,92.6169,VALID,0,VALID,21.1055,VALID,119,VALID,1.32773,
2012-04-23, 02:12:04,VALID,916.205,VALID,0,VALID,92.0604,VALID,0.107441,VALID,21.1429,VALID,128,VALID,1.69492,
2012-04-23, 02:13:04,VALID,916.178,VALID,0,VALID,91.1074,VALID,0,VALID,21.2616,VALID,134,VALID,1.94336,
2012-04-23, 02:14:04,VALID,916.177,VALID,0,VALID,90.5967,VALID,0.107441,VALID,21.338,VALID,136,VALID,1.11094,
2012-04-23, 02:15:04,VALID,916.164,VALID,0,VALID,90.0478,VALID,0,VALID,21.3965,VALID,126,VALID,1.6082,
2012-04-23, 02:16:04,VALID,916.154,VALID,0,VALID,89.6666,VALID,0,VALID,21.4355,VALID,137,VALID,1.50937,
2012-04-23, 02:17:04,VALID,916.194,VALID,0,VALID,88.8967,VALID,0.107441,VALID,21.5331,VALID,139,VALID,1.7043,
2012-04-23, 02:18:04,VALID,916.173,VALID,0,VALID,88.6375,VALID,0,VALID,21.5916,VALID,117,VALID,0.900391,
2012-04-23, 02:19:04,VALID,916.17,VALID,0,VALID,88.3173,VALID,0,VALID,21.6306,VALID,128,VALID,1.23984,
2012-04-23, 02:20:04,VALID,916.186,VALID,0,VALID,87.8904,VALID,0,VALID,21.668,VALID,127,VALID,1.28516,
2012-04-23, 02:21:04,VALID,916.196,VALID,0,VALID,87.6769,VALID,0,VALID,21.6891,VALID,166,VALID,1.05234,
2012-04-23, 02:22:04,VALID,916.18,VALID,0,VALID,87.5397,VALID,0,VALID,21.6891,VALID,149,VALID,1.34648,
2012-04-23, 02:23:04,VALID,916.153,VALID,0,VALID,87.7684,VALID,0,VALID,21.6891,VALID,126,VALID,0.720703,
2012-04-23, 02:24:04,VALID,916.154,VALID,0,VALID,87.9285,VALID,0,VALID,21.6501,VALID,129,VALID,1.21172,
2012-04-23, 02:25:04,VALID,916.127,VALID,0,VALID,88.0886,VALID,0,VALID,21.6111,VALID,116,VALID,1.63867,
2012-04-23, 02:26:04,VALID,916.097,VALID,0,VALID,88.1343,VALID,0,VALID,21.5721,VALID,129,VALID,1.9332,
2012-04-23, 02:27:04,VALID,916.119,VALID,0,VALID,88.4088,VALID,0,VALID,21.5526,VALID,95,VALID,1.41328,
2012-04-23, 02:28:04,VALID,916.08,VALID,0,VALID,88.6603,VALID,0,VALID,21.5347,VALID,100,VALID,1.06797,
2012-04-23, 02:29:04,VALID,916.08,VALID,0,VALID,88.4469,VALID,0.107441,VALID,21.4941,VALID,140,VALID,1.47109,
2012-04-23, 02:30:04,VALID,916.087,VALID,0,VALID,88.4392,VALID,0.107441,VALID,21.5136,VALID,140,VALID,1.33125,
2012-04-23, 02:31:04,VALID,916.075,VALID,0,VALID,88.6908,VALID,0.107441,VALID,21.4941,VALID,94,VALID,0.716406,
2012-04-23, 02:32:04,VALID,916.059,VALID,0,VALID,88.7899,VALID,0,VALID,21.455,VALID,116,VALID,0.948438,
2012-04-23, 02:33:04,VALID,916.051,VALID,0,VALID,88.8967,VALID,0,VALID,21.4567,VALID,152,VALID,1.22305,
2012-04-23, 02:34:04,VALID,916.043,VALID,0,VALID,88.6527,VALID,0.107441,VALID,21.455,VALID,136,VALID,1.40039,
2012-04-23, 02:35:04,VALID,916.049,VALID,0,VALID,88.3783,VALID,0.107441,VALID,21.5331,VALID,136,VALID,1.23867,
2012-04-23, 02:36:04,VALID,916.035,VALID,0,VALID,88.1419,VALID,0.107441,VALID,21.5526,VALID,160,VALID,0.775391,
2012-04-23, 02:37:04,VALID,916.007,VALID,0,VALID,88.2487,VALID,0.107441,VALID,21.5721,VALID,146,VALID,0.50625,
2012-04-23, 02:38:04,VALID,915.992,VALID,0,VALID,88.2563,VALID,0,VALID,21.5542,VALID,146,VALID,0.705469,
2012-04-23, 02:39:04,VALID,915.969,VALID,0,VALID,88.4164,VALID,0.107441,VALID,21.4924,VALID,146,VALID,0.473047,
2012-04-23, 02:40:04,VALID,915.911,VALID,0,VALID,88.5688,VALID,0.107441,VALID,21.4941,VALID,146,VALID,0.530469,
2012-04-23, 02:41:04,VALID,915.953,VALID,0,VALID,88.6984,VALID,0,VALID,21.4746,VALID,146,VALID,0.441016,
2012-04-23, 02:42:04,VALID,915.923,VALID,0,VALID,88.8967,VALID,0.107441,VALID,21.455,VALID,146,VALID,0,
2012-04-23, 02:43:04,VALID,915.92,VALID,0,VALID,89.0949,VALID,0.107441,VALID,21.455,VALID,146,VALID,0,
2012-04-23, 02:44:04,VALID,915.907,VALID,0,VALID,89.2321,VALID,0,VALID,21.455,VALID,146,VALID,0,
2012-04-23, 02:45:04,VALID,915.859,VALID,0,VALID,89.4303,VALID,0.107441,VALID,21.4355,VALID,146,VALID,0.000390625,
2012-04-23, 02:46:04,VALID,915.866,VALID,0,VALID,89.4227,VALID,0.107441,VALID,21.4355,VALID,155,VALID,0.764063,
2012-04-23, 02:47:04,VALID,915.825,VALID,0,VALID,89.3464,VALID,0,VALID,21.3949,VALID,163,VALID,0.240234,
2012-04-23, 02:48:04,VALID,915.849,VALID,0,VALID,89.6437,VALID,0,VALID,21.4177,VALID,163,VALID,0.316406,
2012-04-23, 02:49:04,VALID,915.81,VALID,0,VALID,89.6895,VALID,0.107441,VALID,21.377,VALID,163,VALID,0.423047,
2012-04-23, 02:50:04,VALID,915.785,VALID,0,VALID,89.7581,VALID,0.107441,VALID,21.3185,VALID,159,VALID,1.475,
2012-04-23, 02:51:04,VALID,915.762,VALID,0,VALID,90.0478,VALID,0.107441,VALID,21.26,VALID,158,VALID,1.13047,
2012-04-23, 02:52:04,VALID,915.734,VALID,0,VALID,90.0935,VALID,0.107441,VALID,21.221,VALID,158,VALID,1.28047,
2012-04-23, 02:53:04,VALID,915.684,VALID,0,VALID,90.2841,VALID,0.107441,VALID,21.1998,VALID,158,VALID,1.02813,
2012-04-23, 02:54:04,VALID,915.677,VALID,0,VALID,90.3451,VALID,0.107441,VALID,21.221,VALID,147,VALID,1.18633,
2012-04-23, 02:55:04,VALID,915.593,VALID,0,VALID,90.3527,VALID,0,VALID,21.2031,VALID,135,VALID,1.14219,
2012-04-23, 02:56:04,VALID,915.59,VALID,0,VALID,90.3375,VALID,0,VALID,21.1819,VALID,146,VALID,1.50352,
2012-04-23, 02:57:04,VALID,915.543,VALID,0,VALID,90.3222,VALID,0,VALID,21.2226,VALID,142,VALID,1.25078,
2012-04-23, 02:58:04,VALID,915.532,VALID,0,VALID,90.3146,VALID,0,VALID,21.2031,VALID,144,VALID,1.73281,
2012-04-23, 02:59:04,VALID,915.481,VALID,0,VALID,90.1316,VALID,0,VALID,21.221,VALID,142,VALID,1.93867,
2012-04-23, 03:00:04,VALID,915.453,VALID,0,VALID,89.9792,VALID,0,VALID,21.2616,VALID,144,VALID,1.45234,
2012-04-23, 03:01:04,VALID,915.41,VALID,0,VALID,89.9334,VALID,0,VALID,21.2795,VALID,138,VALID,0.976953,
2012-04-23, 03:02:04,VALID,915.389,VALID,0,VALID,89.9029,VALID,0,VALID,21.26,VALID,141,VALID,1.5375,
2012-04-23, 03:03:04,VALID,915.349,VALID,0,VALID,89.9792,VALID,0,VALID,21.3217,VALID,176,VALID,1.22969,
2012-04-23, 03:04:04,VALID,915.348,VALID,0,VALID,89.9868,VALID,0,VALID,21.2811,VALID,157,VALID,1.52773,
2012-04-23, 03:05:04,VALID,915.31,VALID,0,VALID,89.9334,VALID,0,VALID,21.2795,VALID,136,VALID,1.61602,
2012-04-23, 03:06:04,VALID,915.297,VALID,0,VALID,90.0173,VALID,0,VALID,21.3217,VALID,132,VALID,1.31875,
2012-04-23, 03:07:04,VALID,915.277,VALID,0,VALID,90.0859,VALID,0,VALID,21.3006,VALID,129,VALID,1.10977,
2012-04-23, 03:08:04,VALID,915.239,VALID,0,VALID,90.0173,VALID,0,VALID,21.3201,VALID,133,VALID,1.63047,
2012-04-23, 03:09:04,VALID,915.183,VALID,0,VALID,90.1012,VALID,0,VALID,21.3201,VALID,132,VALID,1.46953,
2012-04-23, 03:10:04,VALID,915.187,VALID,0,VALID,90.1012,VALID,0,VALID,21.3006,VALID,129,VALID,2.37852,
2012-04-23, 03:11:04,VALID,915.156,VALID,0,VALID,90.1164,VALID,0,VALID,21.2795,VALID,140,VALID,1.64492,
2012-04-23, 03:12:04,VALID,915.136,VALID,0,VALID,90.1698,VALID,0,VALID,21.26,VALID,155,VALID,1.61836,
2012-04-23, 03:13:04,VALID,915.108,VALID,0,VALID,90.063,VALID,0,VALID,21.3201,VALID,143,VALID,1.96953,
2012-04-23, 03:14:04,VALID,915.124,VALID,0,VALID,90.1164,VALID,0,VALID,21.3201,VALID,147,VALID,2.45391,
2012-04-23, 03:15:04,VALID,915.073,VALID,0,VALID,89.9792,VALID,0,VALID,21.3396,VALID,168,VALID,2.16719,
2012-04-23, 03:16:04,VALID,915.05,VALID,0,VALID,89.72,VALID,0,VALID,21.4177,VALID,147,VALID,1.80117,
2012-04-23, 03:17:04,VALID,915.074,VALID,0,VALID,89.5294,VALID,0,VALID,21.4372,VALID,134,VALID,2.86367,
2012-04-23, 03:18:04,VALID,915.048,VALID,0,VALID,89.5294,VALID,0,VALID,21.4372,VALID,161,VALID,1.8375,
2012-04-23, 03:19:04,VALID,915.004,VALID,0,VALID,89.6514,VALID,0,VALID,21.4177,VALID,140,VALID,1.20859,
2012-04-23, 03:20:04,VALID,915.013,VALID,0,VALID,89.7429,VALID,0,VALID,21.3965,VALID,142,VALID,1.43164,
2012-04-23, 03:21:04,VALID,914.98,VALID,0,VALID,89.8572,VALID,0,VALID,21.3786,VALID,140,VALID,1.96094,
2012-04-23, 03:22:04,VALID,915.006,VALID,0,VALID,90.0325,VALID,0,VALID,21.338,VALID,143,VALID,1.52813,
2012-04-23, 03:23:04,VALID,914.995,VALID,0,VALID,89.9792,VALID,0,VALID,21.3786,VALID,143,VALID,2.13555,
2012-04-23, 03:24:04,VALID,915.008,VALID,0,VALID,89.6895,VALID,0,VALID,21.4372,VALID,126,VALID,1.95234,
2012-04-23, 03:25:04,VALID,915,VALID,0,VALID,89.5218,VALID,0,VALID,21.4762,VALID,139,VALID,1.57734,
2012-04-23, 03:26:04,VALID,915.026,VALID,0,VALID,89.4455,VALID,0,VALID,21.4957,VALID,138,VALID,2.08789,
2012-04-23, 03:27:04,VALID,915.003,VALID,0,VALID,89.4913,VALID,0,VALID,21.4762,VALID,115,VALID,1.68398,
2012-04-23, 03:28:04,VALID,914.999,VALID,0,VALID,89.6056,VALID,0,VALID,21.4746,VALID,129,VALID,1.3043,
2012-04-23, 03:29:04,VALID,915.008,VALID,0,VALID,89.7352,VALID,0,VALID,21.4372,VALID,131,VALID,1.97187,
2012-04-23, 03:30:04,VALID,915.001,VALID,0,VALID,89.8572,VALID,0,VALID,21.4177,VALID,143,VALID,1.75312,
2012-04-23, 03:31:04,VALID,915.001,VALID,0,VALID,89.9106,VALID,0,VALID,21.416,VALID,129,VALID,2.01836,
2012-04-23, 03:32:04,VALID,914.984,VALID,0,VALID,89.8038,VALID,0,VALID,21.4355,VALID,139,VALID,2.19062,
2012-04-23, 03:33:04,VALID,914.949,VALID,0,VALID,89.3998,VALID,0,VALID,21.5136,VALID,116,VALID,1.69258,
2012-04-23, 03:34:04,VALID,914.963,VALID,0,VALID,89.3007,VALID,0,VALID,21.5136,VALID,117,VALID,1.63164,
2012-04-23, 03:35:04,VALID,914.932,VALID,0,VALID,89.476,VALID,0,VALID,21.4957,VALID,130,VALID,1.56172,
2012-04-23, 03:36:04,VALID,914.917,VALID,0,VALID,89.6895,VALID,0,VALID,21.4567,VALID,127,VALID,1.53281,
2012-04-23, 03:37:04,VALID,914.904,VALID,0,VALID,89.8725,VALID,0,VALID,21.4177,VALID,130,VALID,1.71133,
2012-04-23, 03:38:04,VALID,914.904,VALID,0,VALID,90.0554,VALID,0,VALID,21.3981,VALID,124,VALID,1.37266,
2012-04-23, 03:39:04,VALID,914.877,VALID,0,VALID,90.2994,VALID,0,VALID,21.3396,VALID,121,VALID,1.64258,
2012-04-23, 03:40:04,VALID,914.863,VALID,0,VALID,90.5738,VALID,0,VALID,21.3006,VALID,134,VALID,1.49336,
2012-04-23, 03:41:04,VALID,914.813,VALID,0,VALID,90.7034,VALID,0,VALID,21.2795,VALID,121,VALID,1.33867,
2012-04-23, 03:42:04,VALID,914.858,VALID,0,VALID,90.8483,VALID,0,VALID,21.2405,VALID,100,VALID,1.3793,
2012-04-23, 03:43:04,VALID,914.857,VALID,0,VALID,90.7949,VALID,0,VALID,21.3006,VALID,88,VALID,1.6875,
2012-04-23, 03:44:04,VALID,914.867,VALID,0,VALID,90.5281,VALID,0,VALID,21.3396,VALID,102,VALID,1.29219,